Location: Flint Hill Observatory
(31.1875°N, 100.5222°W)
Time: 14:22:59
(UTC-05:00)

Daily predictions for brighter satellites

Satellite Brightness Start Highest point End
(mag) Time Altitude Azimuth Time Altitude Azimuth Time Altitude Azimuth
Cosmos 2074 Rocket 4.0 20:26:22 10° S 20:32:38 76° E 20:38:55 10° N
FREGAT/IRIS 2.8 20:33:01 10° SSE 20:35:51 47° ENE 20:38:42 10° N
Cosmos 2333 Rocket 2.6 20:31:01 10° S 20:36:14 39° ESE 20:41:27 10° NE
ERS-2 3.7 20:35:56 10° ESE 20:38:33 19° ENE 20:41:12 10° NNE
Cosmos 1455 3.7 20:36:33 10° SE 20:39:09 18° E 20:41:46 10° NE
CZ-2D R/B 4.1 20:36:12 10° SE 20:39:32 29° ENE 20:42:52 10° NNE
COSMOS 2428 2.7 20:35:35 10° SSW 20:41:18 82° ESE 20:47:03 10° NNE
Cosmos 2333 4.2 20:37:14 10° SSW 20:42:54 88° ESE 20:48:33 10° NNE
Sich 1 4.0 20:40:42 10° NNE 20:44:18 26° E 20:47:52 10° SE
Cosmos 1844 Rocket 3.4 20:39:52 10° N 20:45:01 35° ENE 20:50:08 10° SE
Cosmos 2263 Rocket 3.8 20:42:36 10° NW 20:47:48 38° WSW 20:52:56 10° S
Envisat 3.4 20:44:09 10° SE 20:48:57 45° ENE 20:53:46 10° N
Cosmos 2219 Rocket 2.2 20:45:04 10° S 20:50:40 66° ESE 20:56:16 10° NNE
FengYun 1-2 T 4.4 20:45:10 10° SSE 20:50:46 83° WSW 20:56:26 10° NNW
YAOGAN 6 4.1 20:48:38 10° ESE 20:51:12 19° ENE 20:53:48 10° NNE
Cosmos 1892 3.9 20:48:50 10° NNE 20:51:59 23° E 20:55:07 10° SE
Meteor 2-2 Rocket 4.5 20:46:27 10° SSE 20:52:03 52° E 20:57:47 10° NNE
Cosmos 2237 Rocket 2.9 20:48:06 10° SSE 20:52:52 29° ESE 20:57:39 10° NE
Cosmos 2251 Rocket 4.1 20:48:16 10° N 20:53:18 39° ENE 20:58:16 10° SE
Cosmos 1633 Rocket 3.7 21:02:23 10° NNE 21:06:22 35° E 21:09:49 13° SE
Cosmos 2278 Rocket 3.8 21:03:43 10° NNE 21:07:22 17° ENE 21:09:50 13° E
Nadezhda 3 Rocket 4.2 21:02:56 10° N 21:09:06 54° E 21:15:18 10° SSE
Cosmos 1340 3.3 21:07:29 10° SSW 21:11:13 59° W 21:14:58 10° N
Cosmos 1515 Rocket 4.4 21:08:20 10° SSE 21:12:14 30° E 21:16:07 10° NNE
HJ-1C 4.2 21:12:41 10° S 21:15:56 51° W 21:19:12 10° NNW
Cosmos 2228 Rocket 3.7 21:13:20 10° SSE 21:17:18 34° E 21:21:17 10° NNE
Sakura Rocket 3.1 21:13:52 10° WSW 21:18:51 59° S 21:21:08 24° ESE
ASTRO E2 3.1 21:20:48 10° SW 21:24:35 42° SSE 21:26:02 29° ESE
Thor Agena Rocket 3.8 21:19:57 10° N 21:25:12 75° WNW 21:30:27 10° SSW
SL-24 R/B - RUBIN 2 3.4 21:22:00 10° NNW 21:26:20 73° ENE 21:28:55 24° SE
Cosmos 1825 3.9 21:27:48 10° NNE 21:29:47 18° ENE 21:29:47 18° ENE
OAO 2 Rocket 3.4 21:25:38 10° WNW 21:30:52 77° NNE 21:33:39 27° E
Cosmos 1328 Rocket 3.4 21:26:30 10° S 21:30:53 82° E 21:35:19 10° N
Spot 2 Rocket 3.9 21:29:14 24° SE 21:31:49 43° ENE 21:36:37 10° N
ATLAS CENTAUR R/B 2.7 21:29:27 10° SW 21:32:49 37° WNW 21:36:19 10° N
ATLAS 2AS CENTAUR R/B 3.3 21:28:30 10° NNW 21:35:58 47° NE 21:39:43 27° ESE
Resurs 01 Rocket 1.5 21:39:36 26° SSE 21:42:04 76° ENE 21:46:30 10° N
SL-16 R/B 2.9 21:43:10 31° E 21:43:10 31° E 21:47:56 10° NE
Cosmos 2344 4.1 21:39:44 10° S 21:46:24 31° ESE 21:52:56 10° NE
ARGOS 4.3 21:48:16 25° ENE 21:48:32 25° ENE 21:52:50 10° NNE
Cosmos 1470 Rocket 3.6 21:45:16 10° N 21:49:37 58° E 21:50:30 48° SE
OAO 3 Copernicus 4.2 21:44:44 10° WSW 21:49:46 80° SSE 21:51:49 36° ENE
Timation 1 Rocket 4.4 21:44:01 10° NNW 21:49:59 76° WSW 21:53:52 23° SSE
Cosmos 1959 Rocket 4.5 21:45:47 16° SSE 21:50:38 59° E 21:56:39 10° NNE
Cosmos 1939 Rocket 3.1 21:49:00 26° S 21:51:01 64° W 21:54:53 10° NNW
Cosmos 1869 3.5 21:55:17 51° ENE 21:55:17 51° ENE 21:58:47 10° NNE
Meteor 2-3 Rocket 3.8 21:53:12 10° N 21:58:49 78° W 22:02:32 22° S
deb Centaur AC-2 4.1 21:57:21 10° W 22:01:42 66° S 22:02:12 60° SSE
Meteor 2-10 Rocket 3.8 22:01:52 45° SE 22:03:13 55° E 22:08:52 10° NNE
ATLAS 3B CENTAUR R/B 4.2 21:54:45 10° W 22:04:51 25° SW 22:08:39 16° S
Cosmos 2218 Rocket 3.9 22:02:37 14° S 22:08:05 85° E 22:14:31 10° N
ERS-1 Rocket 4.4 22:10:08 24° NE 22:10:08 24° NE 22:13:11 10° NNE
SL-08 R/B 4.4 22:08:43 35° SSE 22:11:31 71° E 22:17:53 10° N
Cosmos 1408 3.3 22:09:52 10° N 22:12:37 48° N 22:12:37 48° N
Cosmos 1151 Rocket 4.2 22:12:22 13° SSW 22:15:57 41° W 22:20:00 10° N
H-2A R/B 3.0 22:17:10 31° NE 22:17:10 31° NE 22:20:36 10° N
Cosmos 220 Rocket 4.4 22:12:49 10° NNW 22:17:02 56° WSW 22:17:27 53° SW
Cosmos 1933 Rocket 3.6 22:13:50 10° N 22:18:12 75° W 22:18:15 75° WSW
USA 267 3.2 22:12:06 10° NE 22:18:31 57° SE 22:24:53 10° SSW
Cosmos 2366 rocket 3.9 22:15:37 24° S 22:19:31 86° W 22:25:48 10° N
Cosmos 1371 Rocket 4.3 22:14:24 10° SSW 22:19:39 65° WNW 22:24:58 10° N
MetOp-A 4.2 22:32:42 64° NE 22:32:42 64° NE 22:37:29 10° N
Cosmos 2237 Rocket 4.0 22:31:57 10° WSW 22:36:46 29° WNW 22:41:38 10° N
Cosmos 2056 Rocket 4.3 22:37:10 17° SW 22:41:09 52° WNW 22:46:25 10° N
Cosmos 1339 Rocket 4.3 22:36:02 10° N 22:42:10 88° W 22:42:24 83° SSW
Cosmos 2098 Rocket 4.4 22:47:46 37° W 22:48:15 38° W 22:52:10 10° NNW
Cosmos 2278 Rocket 2.7 22:46:13 10° NNW 22:51:44 54° WSW 22:51:44 54° WSW
ATLAS 2AS CENTAUR R/B 4.1 23:20:13 10° NW 23:26:32 30° WSW 23:27:11 29° WSW
SL-16 R/B 3.9 23:24:48 22° W 23:27:03 28° WNW 23:31:52 10° N
ATLAS 2A CENTAUR R/B 4.0 23:32:56 10° WSW 23:44:51 48° SW 23:44:51 48° SW
